Year,Month,Day,Hour,Minute,Value (Times are PST for temperature in C)
2014,11,30,08,30,-2.70
2014,11,30,08,31,-2.70
2014,11,30,08,32,-2.70
2014,11,30,08,33,-2.70
2014,11,30,08,34,-2.70
2014,11,30,08,35,-2.70
2014,11,30,08,36,-2.70
2014,11,30,08,37,-2.70
2014,11,30,08,38,-2.60
2014,11,30,08,39,-2.60
2014,11,30,08,40,-2.60
2014,11,30,08,41,-2.60
2014,11,30,08,42,-2.50
2014,11,30,08,43,-2.50
2014,11,30,08,44,-2.50
2014,11,30,08,45,-2.40
2014,11,30,08,46,-2.40
2014,11,30,08,47,-2.40
2014,11,30,08,48,-2.30
2014,11,30,08,49,-2.30
2014,11,30,08,50,-2.20
2014,11,30,08,51,-2.20
2014,11,30,08,52,-2.10
2014,11,30,08,53,-2.00
2014,11,30,08,54,-2.00
2014,11,30,08,55,-1.90
2014,11,30,08,56,-1.80
2014,11,30,08,57,-1.80
2014,11,30,08,58,-1.70
2014,11,30,08,59,-1.60
2014,11,30,09,00,-1.50
2014,11,30,09,01,-1.50
2014,11,30,09,02,-1.50
2014,11,30,09,03,-1.50
2014,11,30,09,04,-1.50
2014,11,30,09,05,-1.50
2014,11,30,09,06,-1.50
2014,11,30,09,07,-1.50
2014,11,30,09,08,-1.60
2014,11,30,09,09,-1.60
2014,11,30,09,10,-1.60
2014,11,30,09,11,-1.60
2014,11,30,09,12,-1.60
2014,11,30,09,13,-1.70
2014,11,30,09,14,-1.70
2014,11,30,09,15,-1.70
2014,11,30,09,16,-1.70
2014,11,30,09,17,-1.70
2014,11,30,09,18,-1.70
2014,11,30,09,19,-1.70
2014,11,30,09,20,-1.70
2014,11,30,09,21,-1.70
2014,11,30,09,22,-1.70
2014,11,30,09,23,-1.60
2014,11,30,09,24,-1.70
2014,11,30,09,25,-1.70
2014,11,30,09,26,-1.70
2014,11,30,09,27,-1.70
2014,11,30,09,28,-1.70
2014,11,30,09,29,-1.60
2014,11,30,09,30,-1.60
2014,11,30,09,31,-1.50
2014,11,30,09,32,-1.50
2014,11,30,09,33,-1.40
2014,11,30,09,34,-1.40
2014,11,30,09,35,-1.40
2014,11,30,09,36,-1.30
2014,11,30,09,37,-1.30
2014,11,30,09,38,-1.30
2014,11,30,09,39,-1.20
2014,11,30,09,40,-1.20
2014,11,30,09,41,-1.20
2014,11,30,09,42,-1.20
2014,11,30,09,43,-1.20
2014,11,30,09,44,-1.10
2014,11,30,09,45,-1.10
2014,11,30,09,46,-1.10
2014,11,30,09,47,-1.00
2014,11,30,09,48,-0.90
2014,11,30,09,49,-0.90
2014,11,30,09,50,-0.90
2014,11,30,09,51,-0.80
2014,11,30,09,52,-0.80
2014,11,30,09,53,-0.70
2014,11,30,09,54,-0.70
2014,11,30,09,55,-0.60
2014,11,30,09,56,-0.60
2014,11,30,09,57,-0.60
2014,11,30,09,58,-0.60
2014,11,30,09,59,-0.50
2014,11,30,10,00,-0.50
2014,11,30,10,01,-0.50
2014,11,30,10,02,-0.50
2014,11,30,10,03,-0.60
2014,11,30,10,04,-0.60
2014,11,30,10,05,-0.60
2014,11,30,10,06,-0.60
2014,11,30,10,07,-0.70
2014,11,30,10,08,-0.70
2014,11,30,10,09,-0.70
2014,11,30,10,10,-0.70
2014,11,30,10,11,-0.70
2014,11,30,10,12,-0.70
2014,11,30,10,13,-0.70
2014,11,30,10,14,-0.60
2014,11,30,10,15,-0.60
2014,11,30,10,16,-0.60
2014,11,30,10,17,-0.50
2014,11,30,10,18,-0.50
2014,11,30,10,19,-0.40
2014,11,30,10,20,-0.40
2014,11,30,10,21,-0.40
2014,11,30,10,22,-0.40
2014,11,30,10,23,-0.40
2014,11,30,10,24,-0.40
2014,11,30,10,25,-0.40
2014,11,30,10,26,-0.40
2014,11,30,10,27,-0.50
2014,11,30,10,28,-0.50
2014,11,30,10,29,-0.50
2014,11,30,10,30,-0.50
2014,11,30,10,31,-0.50
2014,11,30,10,32,-0.50
2014,11,30,10,33,-0.40
2014,11,30,10,34,-0.40
2014,11,30,10,35,-0.40
2014,11,30,10,36,-0.40
2014,11,30,10,37,-0.40
2014,11,30,10,38,-0.40
2014,11,30,10,39,-0.30
2014,11,30,10,40,-0.30
2014,11,30,10,41,-0.30
2014,11,30,10,42,-0.30
2014,11,30,10,43,-0.30
2014,11,30,10,44,-0.30
2014,11,30,10,45,-0.40
2014,11,30,10,46,-0.40
2014,11,30,10,47,-0.50
2014,11,30,10,48,-0.50
2014,11,30,10,49,-0.50
2014,11,30,10,50,-0.60
2014,11,30,10,51,-0.60
2014,11,30,10,52,-0.60
2014,11,30,10,53,-0.60
2014,11,30,10,54,-0.60
2014,11,30,10,55,-0.60
2014,11,30,10,56,-0.50
2014,11,30,10,57,-0.50
2014,11,30,10,58,-0.40
2014,11,30,10,59,-0.40
2014,11,30,11,00,-0.40
2014,11,30,11,01,-0.40
2014,11,30,11,02,-0.40
2014,11,30,11,03,-0.30
2014,11,30,11,04,-0.30
2014,11,30,11,05,-0.30
2014,11,30,11,06,-0.30
2014,11,30,11,07,-0.30
2014,11,30,11,08,-0.30
2014,11,30,11,09,-0.30
2014,11,30,11,10,-0.30
2014,11,30,11,11,-0.30
2014,11,30,11,12,-0.30
2014,11,30,11,13,-0.20
2014,11,30,11,14,-0.20
2014,11,30,11,15,-0.20
2014,11,30,11,16,-0.10
2014,11,30,11,17,-0.10
2014,11,30,11,18,0.00
2014,11,30,11,19,0.00
2014,11,30,11,20,0.00
2014,11,30,11,21,0.00
2014,11,30,11,22,-0.10
2014,11,30,11,23,-0.20
2014,11,30,11,24,-0.20
2014,11,30,11,25,-0.20
2014,11,30,11,26,-0.30
2014,11,30,11,27,-0.30
2014,11,30,11,28,-0.30
2014,11,30,11,29,-0.30
2014,11,30,11,30,-0.20
2014,11,30,11,31,-0.10
2014,11,30,11,32,-0.10
2014,11,30,11,33,0.00
2014,11,30,11,34,0.10
2014,11,30,11,35,0.10
2014,11,30,11,36,0.20
2014,11,30,11,37,0.20
2014,11,30,11,38,0.20
2014,11,30,11,39,0.20
2014,11,30,11,40,0.20
2014,11,30,11,41,0.30
2014,11,30,11,42,0.30
2014,11,30,11,43,0.30
2014,11,30,11,44,0.40
2014,11,30,11,45,0.30
2014,11,30,11,46,0.40
2014,11,30,11,47,0.40
2014,11,30,11,48,0.40
2014,11,30,11,49,0.40
2014,11,30,11,50,0.50
2014,11,30,11,51,0.50
2014,11,30,11,52,0.60
2014,11,30,11,53,0.60
2014,11,30,11,54,0.60
2014,11,30,11,55,0.60
2014,11,30,11,56,0.60
2014,11,30,11,57,0.60
2014,11,30,11,58,0.60
2014,11,30,11,59,0.50
2014,11,30,12,00,0.50
2014,11,30,12,01,0.40
2014,11,30,12,02,0.40
2014,11,30,12,03,0.40
2014,11,30,12,04,0.40
2014,11,30,12,05,0.50
2014,11,30,12,06,0.50
2014,11,30,12,07,0.50
2014,11,30,12,08,0.60
2014,11,30,12,09,0.60
2014,11,30,12,10,0.70
2014,11,30,12,11,0.70
2014,11,30,12,12,0.60
2014,11,30,12,13,0.50
2014,11,30,12,14,0.40
2014,11,30,12,15,0.40
2014,11,30,12,16,0.30
2014,11,30,12,17,0.30
2014,11,30,12,18,0.30
2014,11,30,12,19,0.30
2014,11,30,12,20,0.30
2014,11,30,12,21,0.30
2014,11,30,12,22,0.20
2014,11,30,12,23,0.20
2014,11,30,12,24,0.20
2014,11,30,12,25,0.20
2014,11,30,12,26,0.20
2014,11,30,12,27,0.30
2014,11,30,12,28,0.30
2014,11,30,12,29,0.40
2014,11,30,12,30,0.50
2014,11,30,12,31,0.60
2014,11,30,12,32,0.60
2014,11,30,12,33,0.60
2014,11,30,12,34,0.60
2014,11,30,12,35,0.50
2014,11,30,12,36,0.50
2014,11,30,12,37,0.40
2014,11,30,12,38,0.40
2014,11,30,12,39,0.30
2014,11,30,12,40,0.30
2014,11,30,12,41,0.30
2014,11,30,12,42,0.30
2014,11,30,12,43,0.30
2014,11,30,12,44,0.30
2014,11,30,12,45,0.30
2014,11,30,12,46,0.40
2014,11,30,12,47,0.50
2014,11,30,12,48,0.50
2014,11,30,12,49,0.60
2014,11,30,12,50,0.70
2014,11,30,12,51,0.70
2014,11,30,12,52,0.80
2014,11,30,12,53,0.80
2014,11,30,12,54,0.90
2014,11,30,12,55,0.90
2014,11,30,12,56,0.80
2014,11,30,12,57,0.80
2014,11,30,12,58,0.80
2014,11,30,12,59,0.80
2014,11,30,13,00,0.80
2014,11,30,13,01,0.80
2014,11,30,13,02,0.80
2014,11,30,13,03,0.80
2014,11,30,13,04,0.80
2014,11,30,13,05,0.80
2014,11,30,13,06,0.80
2014,11,30,13,07,0.80
2014,11,30,13,08,0.90
2014,11,30,13,09,0.90
2014,11,30,13,10,1.00
2014,11,30,13,11,1.10
2014,11,30,13,12,1.10
2014,11,30,13,13,1.10
2014,11,30,13,14,1.10
2014,11,30,13,15,1.10
2014,11,30,13,16,1.10
2014,11,30,13,17,1.10
2014,11,30,13,18,1.10
2014,11,30,13,19,1.10
2014,11,30,13,20,1.10
2014,11,30,13,21,1.10
2014,11,30,13,22,1.10
2014,11,30,13,23,1.00
2014,11,30,13,24,1.00
2014,11,30,13,25,0.90
2014,11,30,13,26,0.90
2014,11,30,13,27,0.90
2014,11,30,13,28,0.90
2014,11,30,13,29,0.80
2014,11,30,13,30,0.80
2014,11,30,13,31,0.80
2014,11,30,13,32,0.70
2014,11,30,13,33,0.70
2014,11,30,13,34,0.70
2014,11,30,13,35,0.70
2014,11,30,13,36,0.70
2014,11,30,13,37,0.70
2014,11,30,13,38,0.70
2014,11,30,13,39,0.70
2014,11,30,13,40,0.70
2014,11,30,13,41,0.60
2014,11,30,13,42,0.60
2014,11,30,13,43,0.60
2014,11,30,13,44,0.50
2014,11,30,13,45,0.50
2014,11,30,13,46,0.40
2014,11,30,13,47,0.40
2014,11,30,13,48,0.40
2014,11,30,13,49,0.40
2014,11,30,13,50,0.40
2014,11,30,13,51,0.40
2014,11,30,13,52,0.40
2014,11,30,13,53,0.40
2014,11,30,13,54,0.40
2014,11,30,13,55,0.50
2014,11,30,13,56,0.50
2014,11,30,13,57,0.50
2014,11,30,13,58,0.60
2014,11,30,13,59,0.60
2014,11,30,14,00,0.60
2014,11,30,14,01,0.60
2014,11,30,14,02,0.60
2014,11,30,14,03,0.70
2014,11,30,14,04,0.70
2014,11,30,14,05,0.70
2014,11,30,14,06,0.80
2014,11,30,14,07,0.80
2014,11,30,14,08,0.90
2014,11,30,14,09,0.90
2014,11,30,14,10,0.80
2014,11,30,14,11,0.80
2014,11,30,14,12,0.80
2014,11,30,14,13,0.80
2014,11,30,14,14,0.80
2014,11,30,14,15,0.80
2014,11,30,14,16,0.80
2014,11,30,14,17,0.80
2014,11,30,14,18,0.80
2014,11,30,14,19,0.80
2014,11,30,14,20,0.80
2014,11,30,14,21,0.80
2014,11,30,14,22,0.80
2014,11,30,14,23,0.80
2014,11,30,14,24,0.80
2014,11,30,14,25,0.70
2014,11,30,14,26,0.70
2014,11,30,14,27,0.70
2014,11,30,14,28,0.70
2014,11,30,14,29,0.60
2014,11,30,14,30,0.60
2014,11,30,14,31,0.60
2014,11,30,14,32,0.60
2014,11,30,14,33,0.70
2014,11,30,14,34,0.70
2014,11,30,14,35,0.70
2014,11,30,14,36,0.70
2014,11,30,14,37,0.70
2014,11,30,14,38,0.70
2014,11,30,14,39,0.80
2014,11,30,14,40,0.80
2014,11,30,14,41,0.90
2014,11,30,14,42,0.90
2014,11,30,14,43,0.90
2014,11,30,14,44,0.90
2014,11,30,14,45,0.90
2014,11,30,14,46,0.80
2014,11,30,14,47,0.80
2014,11,30,14,48,0.80
2014,11,30,14,49,0.80
2014,11,30,14,50,0.80
2014,11,30,14,51,0.80
2014,11,30,14,52,0.80
2014,11,30,14,53,0.80
2014,11,30,14,54,0.80
2014,11,30,14,55,0.90
2014,11,30,14,56,0.90
2014,11,30,14,57,0.90
2014,11,30,14,58,0.90
2014,11,30,14,59,0.90
2014,11,30,15,00,0.90
2014,11,30,15,01,0.90
2014,11,30,15,02,1.00
2014,11,30,15,03,1.00
2014,11,30,15,04,1.00
2014,11,30,15,05,1.10
2014,11,30,15,06,1.10
2014,11,30,15,07,1.10
2014,11,30,15,08,1.10
2014,11,30,15,09,1.10
2014,11,30,15,10,1.10
2014,11,30,15,11,1.10
2014,11,30,15,12,1.00
2014,11,30,15,13,1.00
2014,11,30,15,14,0.90
2014,11,30,15,15,0.90
2014,11,30,15,16,0.90
2014,11,30,15,17,1.00
2014,11,30,15,18,1.00
2014,11,30,15,19,1.00
2014,11,30,15,20,1.00
2014,11,30,15,21,0.90
2014,11,30,15,22,0.90
2014,11,30,15,23,0.90
2014,11,30,15,24,0.80
2014,11,30,15,25,0.80
2014,11,30,15,26,0.70
2014,11,30,15,27,0.70
2014,11,30,15,28,0.60
2014,11,30,15,29,0.60
2014,11,30,15,30,0.60
2014,11,30,15,31,0.50
2014,11,30,15,32,0.50
2014,11,30,15,33,0.50
2014,11,30,15,34,0.50
2014,11,30,15,35,0.40
2014,11,30,15,36,0.40
2014,11,30,15,37,0.40
2014,11,30,15,38,0.40
2014,11,30,15,39,0.40
2014,11,30,15,40,0.40
2014,11,30,15,41,0.40
2014,11,30,15,42,0.30
2014,11,30,15,43,0.30
2014,11,30,15,44,0.20
2014,11,30,15,45,0.20
2014,11,30,15,46,0.10
2014,11,30,15,47,0.10
2014,11,30,15,48,0.10
2014,11,30,15,49,0.00
2014,11,30,15,50,-0.10
2014,11,30,15,51,-0.10
2014,11,30,15,52,-0.10
2014,11,30,15,53,-0.20
2014,11,30,15,54,-0.20
2014,11,30,15,55,-0.30
2014,11,30,15,56,-0.30
2014,11,30,15,57,-0.30
2014,11,30,15,58,-0.30
2014,11,30,15,59,-0.40
2014,11,30,16,00,-0.40
2014,11,30,16,01,-0.40
2014,11,30,16,02,-0.40
2014,11,30,16,03,-0.40
2014,11,30,16,04,-0.40
2014,11,30,16,05,-0.50
2014,11,30,16,06,-0.50
2014,11,30,16,07,-0.60
2014,11,30,16,08,-0.60
2014,11,30,16,09,-0.60
2014,11,30,16,10,-0.60
2014,11,30,16,11,-0.60
2014,11,30,16,12,-0.60
2014,11,30,16,13,-0.60
2014,11,30,16,14,-0.60
2014,11,30,16,15,-0.60
2014,11,30,16,16,-0.60
2014,11,30,16,17,-0.60
2014,11,30,16,18,-0.60
